Гран При Японии: вторая тренировка

Гран При Японии: вторая тренировка

Вторая сессия тренировок также прошла при сухой погоде, не смотря на приближающийся тайфун. Именно поэтому команды поспешили сразу отработать намеченную на день программу.

Возможно из-за этого, первая часть сессии получилась хаотичной. Сначала Камуи Кобаяши разбил машину в четвертом повороте, потом Жан-Эрик Вернь остановился из-за поломки топливного насоса, а после аварии Даниэля Риккардо появились красные флаги. Машина Даниэля стояла в неудачном месте и пришлось выпускать эвакуатор.

Еще через десять минут Эстебан Гутьеррес разбивает машину в повороте Spoon. Проблемы возникли у Серхио Переса, который смог отработать лишь полчаса из-за поломки коробки передач.

На последних минутах болид Верня опять остановился на треке, но уже из-за проблем с электроникой. Появились красные флаги и под ними время сессии истекло.

На этот раз протокол возглавил другой пилот Mercedes Льюис Хэмилтон – 1:35.078. Нико Росберг был также недалеко. С отставанием от лучшего времени более секунды далее в протоколе разместились Вальттери Боттас и Дженсон Баттон.

 
Дата03 октября 2014Погодаоблачно
Киевское время08:00-09:30 ч.Температура26-30°C
Местное время14:00-15:30 ч.Влажность57-73%
Участники22Давление1.002 mBar
Рекорд в гонке1:31.540 мин.Асфальт37-43°C
Рекорд в квалификации1:29.599 мин.Ветер1,5 м/с, южный переменный

Результаты

Поз.ПилотКомандаВремяAbstandauf V.Rnd.
144L. HamiltonMercedes1:35.078  28
26N. RosbergMercedes1:35.318+0:00.240+0:00.24027
377V. BottasWilliams1:36.279+0:01.201+0:00.96124
422J. ButtonMcLaren1:36.409+0:01.331+0:00.13028
51S. VettelRed Bull1:36.436+0:01.358+0:00.02724
67K. RäikkönenFerrari1:36.529+0:01.451+0:00.09319
714F. AlonsoFerrari1:36.637+0:01.559+0:00.10826
820K. MagnussenMcLaren1:36.714+0:01.636+0:00.07731
926D. KwjatToro Rosso1:36.943+0:01.865+0:00.22927
103D. RicciardoRed Bull1:37.186+0:02.108+0:00.2433
1125J. VergneToro Rosso1:37.219+0:02.141+0:00.03319
1227N. HülkenbergForce India1:37.504+0:02.426+0:00.28516
138R. GrosjeanLotus1:37.563+0:02.485+0:00.05931
1419F. MassaWilliams1:37.700+0:02.622+0:00.13718
1511S. PerezForce India1:37.786+0:02.708+0:00.0868
1613P. MaldonadoLotus1:37.798+0:02.720+0:00.01227
1799A. SutilSauber1:38.010+0:02.932+0:00.21225
1821E. GutierrezSauber1:38.365+0:03.287+0:00.3559
199M. EricssonCaterham1:39.069+0:03.991+0:00.70422
2017J. BianchiMarussia1:39.306+0:04.228+0:00.23720
214M. ChiltonMarussia1:39.333+0:04.255+0:00.02724
 107 % барьер1:41.733 
2210K. KobayashiCaterham1:42.760+0:07.682+0:03.4273
от пред. = от предыдущего


Будьте частиною чогось більшого

Написати коментар
Показати коментарі
Про цю статтю
Серія Формула 1
Тип статті Важливі новини